When you browse on this site, cookies collect data to enhance your experience and personalize the content and advertising you see.
Visit our Privacy Policy to learn more. By continuing to use the site, you agree to this use of cookies and data.
  • In Portugal
  • List of Countries
  • For 7 days
  • Water Temperature
  • Weather Map
  • Weather Widgets
  • user-avatar
    Login

    Hourly Weather Lezhe

    Today, 29 January, Wednesday

    Time Temperature Precipitation Wind Pressure Humidity
    00:00 +8°C° 0.5 mm 6 mps 734 mmHg 90%
    01:00 +8°C° 0.5 mm 6 mps 734 mmHg 91%
    02:00 +8°C° 0.5 mm 6 mps 733 mmHg 90%
    03:00 +8°C° 0.5 mm 6 mps 733 mmHg 90%
    04:00 +8°C° 0.5 mm 6 mps 732 mmHg 89%
    05:00 +8°C° 1.2 mm 6 mps 732 mmHg 89%
    06:00 +8°C° 1.2 mm 6 mps 733 mmHg 89%
    07:00 +9°C° 1.2 mm 6 mps 733 mmHg 90%
    08:00 +9°C° 1 mm 6 mps 733 mmHg 89%
    09:00 +9°C° 1 mm 5 mps 733 mmHg 89%
    10:00 +11°C° 1 mm 4 mps 733 mmHg 88%
    11:00 +11°C° 0.5 mm 4 mps 733 mmHg 84%
    12:00 +11°C° 0.5 mm 4 mps 733 mmHg 79%
    13:00 +12°C° 0.5 mm 4 mps 733 mmHg 74%
    14:00 +11°C° 0.5 mm 4 mps 733 mmHg 77%
    15:00 +11°C° 0.5 mm 3 mps 733 mmHg 80%
    16:00 +10°C° 0.5 mm 3 mps 733 mmHg 83%
    17:00 +10°C° 0.5 mm 2 mps 733 mmHg 84%
    18:00 +9°C° 0.5 mm 2 mps 734 mmHg 85%
    19:00 +10°C° 0.5 mm 1 mps 734 mmHg 86%
    20:00 +10°C° 0.4 mm 1 mps 735 mmHg 87%
    21:00 +9°C° 0.4 mm 1 mps 735 mmHg 89%
    22:00 +9°C° 0.4 mm 1 mps 736 mmHg 90%
    23:00 +9°C° 0.1 mm 1 mps 736 mmHg 90%

    Tomorrow, 30 January, Thursday

    Time Temperature Precipitation Wind Pressure Humidity
    00:00 +8°C° 0.1 mm 1 mps 736 mmHg 90%
    01:00 +8°C° 0.1 mm 1 mps 736 mmHg 91%
    02:00 +8°C° 0.1 mm 1 mps 737 mmHg 90%
    03:00 +7°C° 0.1 mm 1 mps 737 mmHg 90%
    04:00 +7°C° 0.1 mm 1 mps 737 mmHg 90%
    05:00 +7°C° 0 mm 1 mps 737 mmHg 89%
    06:00 +7°C° 0 mm 1 mps 738 mmHg 89%
    07:00 +7°C° 0 mm 1 mps 739 mmHg 88%
    08:00 +8°C° 0 mm 1 mps 739 mmHg 84%
    09:00 +10°C° 0 mm 1 mps 739 mmHg 79%
    10:00 +11°C° 0 mm 1 mps 740 mmHg 75%
    11:00 +11°C° 0 mm 1 mps 739 mmHg 72%
    12:00 +12°C° 0 mm 1 mps 739 mmHg 68%
    13:00 +12°C° 0 mm 1 mps 739 mmHg 65%
    14:00 +12°C° 0 mm 1 mps 739 mmHg 68%
    15:00 +12°C° 0 mm 1 mps 739 mmHg 71%
    16:00 +11°C° 0 mm 1 mps 739 mmHg 74%
    17:00 +10°C° 0 mm 1 mps 739 mmHg 77%
    18:00 +9°C° 0 mm 1 mps 740 mmHg 80%
    19:00 +8°C° 0 mm 1 mps 740 mmHg 84%
    20:00 +8°C° 0 mm 1 mps 740 mmHg 84%
    21:00 +8°C° 0 mm 1 mps 740 mmHg 83%
    22:00 +6°C° 0 mm 2 mps 740 mmHg 83%
    23:00 +7°C° 0 mm 1 mps 740 mmHg 81%

    Day after tomorrow, 31 January, Friday

    Time Temperature Precipitation Wind Pressure Humidity
    00:00 +7°C° 0 mm 1 mps 740 mmHg 78%
    01:00 +7°C° 0 mm 1 mps 740 mmHg 76%
    02:00 +7°C° 0 mm 1 mps 740 mmHg 76%
    03:00 +7°C° 0 mm 1 mps 739 mmHg 75%
    04:00 +7°C° 0 mm 1 mps 739 mmHg 75%
    05:00 +7°C° 0 mm 1 mps 739 mmHg 75%
    06:00 +7°C° 0 mm 1 mps 739 mmHg 75%
    07:00 +7°C° 0 mm 1 mps 739 mmHg 75%
    08:00 +8°C° 0 mm 1 mps 739 mmHg 72%
    09:00 +10°C° 0 mm 1 mps 739 mmHg 69%
    10:00 +11°C° 0 mm 1 mps 740 mmHg 65%
    11:00 +11°C° 0 mm 1 mps 739 mmHg 68%
    12:00 +11°C° 0 mm 1 mps 739 mmHg 71%
    13:00 +11°C° 0 mm 1 mps 739 mmHg 74%
    14:00 +11°C° 0 mm 1 mps 739 mmHg 76%
    15:00 +11°C° 0 mm 1 mps 738 mmHg 79%
    16:00 +11°C° 0 mm 1 mps 738 mmHg 81%
    17:00 +10°C° 0 mm 1 mps 739 mmHg 83%
    18:00 +10°C° 0 mm 1 mps 739 mmHg 85%
    19:00 +8°C° 0 mm 0 mps 739 mmHg 87%
    20:00 +9°C° 0 mm 1 mps 739 mmHg 88%
    21:00 +9°C° 0 mm 1 mps 739 mmHg 88%
    22:00 +9°C° 0 mm 1 mps 739 mmHg 88%
    23:00 +9°C° 0 mm 1 mps 739 mmHg 89%

    1 February, Saturday

    Time Temperature Precipitation Wind Pressure Humidity
    00:00 +8°C° 0 mm 1 mps 739 mmHg 89%
    01:00 +8°C° 0 mm 1 mps 739 mmHg 89%
    02:00 +8°C° 0 mm 1 mps 739 mmHg 89%
    03:00 +8°C° 0 mm 1 mps 739 mmHg 89%
    04:00 +8°C° 0 mm 1 mps 739 mmHg 88%
    05:00 +8°C° 0 mm 1 mps 739 mmHg 88%
    06:00 +7°C° 0 mm 1 mps 739 mmHg 87%
    07:00 +7°C° 0 mm 1 mps 739 mmHg 87%
    08:00 +9°C° 0 mm 1 mps 739 mmHg 82%
    09:00 +9°C° 0 mm 0 mps 739 mmHg 77%
    10:00 +11°C° 0 mm 0 mps 740 mmHg 71%
    11:00 +12°C° 0 mm 0 mps 739 mmHg 70%
    12:00 +13°C° 0 mm 1 mps 739 mmHg 68%
    13:00 +14°C° 0 mm 1 mps 739 mmHg 67%
    14:00 +14°C° 0 mm 1 mps 738 mmHg 71%
    15:00 +13°C° 0 mm 1 mps 738 mmHg 75%
    16:00 +13°C° 0 mm 1 mps 738 mmHg 79%
    17:00 +12°C° 0 mm 1 mps 738 mmHg 83%
    18:00 +10°C° 0 mm 1 mps 738 mmHg 87%
    19:00 +8°C° 0 mm 0 mps 739 mmHg 92%
    20:00 +8°C° 0 mm 0 mps 739 mmHg 92%
    21:00 +8°C° 0 mm 0 mps 739 mmHg 92%
    22:00 +9°C° 0 mm 1 mps 739 mmHg 92%
    23:00 +9°C° 0 mm 1 mps 739 mmHg 92%

    2 February, Sunday

    Time Temperature Precipitation Wind Pressure Humidity
    00:00 +8°C° 0 mm 1 mps 738 mmHg 92%
    01:00 +8°C° 0 mm 1 mps 738 mmHg 92%
    02:00 +8°C° 0 mm 1 mps 738 mmHg 92%
    03:00 +8°C° 0 mm 1 mps 738 mmHg 92%
    04:00 +8°C° 0 mm 1 mps 738 mmHg 92%
    05:00 +8°C° 0 mm 1 mps 738 mmHg 92%
    06:00 +8°C° 0 mm 1 mps 738 mmHg 92%
    07:00 +8°C° 0 mm 1 mps 738 mmHg 92%
    08:00 +8°C° 0.5 mm 1 mps 738 mmHg 92%
    09:00 +9°C° 0.5 mm 1 mps 739 mmHg 92%
    10:00 +9°C° 0.5 mm 1 mps 739 mmHg 93%
    11:00 +8°C° 0.9 mm 2 mps 739 mmHg 92%
    12:00 +8°C° 0.9 mm 2 mps 739 mmHg 91%
    13:00 +8°C° 0.9 mm 3 mps 740 mmHg 90%
    14:00 +8°C° 0.1 mm 3 mps 740 mmHg 85%
    15:00 +8°C° 0.1 mm 3 mps 740 mmHg 79%
    16:00 +9°C° 0.1 mm 3 mps 741 mmHg 74%
    17:00 +8°C° 0 mm 3 mps 741 mmHg 75%
    18:00 +7°C° 0 mm 3 mps 741 mmHg 76%
    19:00 +5°C° 0 mm 3 mps 741 mmHg 77%
    20:00 +4°C° 0 mm 3 mps 742 mmHg 76%
    21:00 +4°C° 0 mm 3 mps 742 mmHg 75%
    22:00 +4°C° 0 mm 3 mps 742 mmHg 74%
    23:00 +4°C° 0 mm 3 mps 742 mmHg 73%

    3 February, Monday

    Time Temperature Precipitation Wind Pressure Humidity
    00:00 +4°C° 0 mm 3 mps 742 mmHg 71%
    01:00 +5°C° 0 mm 2 mps 742 mmHg 69%
    02:00 +5°C° 0 mm 2 mps 742 mmHg 68%
    03:00 +5°C° 0 mm 2 mps 742 mmHg 66%
    04:00 +5°C° 0 mm 2 mps 742 mmHg 64%
    05:00 +5°C° 0 mm 2 mps 742 mmHg 62%
    06:00 +5°C° 0 mm 2 mps 742 mmHg 60%
    07:00 +5°C° 0 mm 2 mps 742 mmHg 57%
    08:00 +8°C° 0 mm 1 mps 742 mmHg 53%
    09:00 +10°C° 0 mm 1 mps 742 mmHg 50%
    10:00 +12°C° 0 mm 1 mps 742 mmHg 46%
    11:00 +13°C° 0 mm 1 mps 742 mmHg 45%
    12:00 +14°C° 0 mm 1 mps 742 mmHg 43%
    13:00 +15°C° 0 mm 1 mps 741 mmHg 42%
    14:00 +15°C° 0 mm 1 mps 741 mmHg 49%
    15:00 +14°C° 0 mm 1 mps 741 mmHg 55%
    16:00 +13°C° 0 mm 1 mps 741 mmHg 62%
    17:00 +11°C° 0 mm 0 mps 741 mmHg 63%
    18:00 +10°C° 0 mm 0 mps 741 mmHg 63%
    19:00 +9°C° 0 mm 0 mps 742 mmHg 64%
    20:00 +9°C° 0 mm 0 mps 742 mmHg 64%
    21:00 +9°C° 0 mm 0 mps 742 mmHg 64%
    22:00 +9°C° 0 mm 0 mps 742 mmHg 64%
    23:00 +9°C° 0 mm 0 mps 742 mmHg 64%
    Show more